Time,TemperatureF,DewpointF,PressureIn,WindDirection,WindDirectionDegrees,WindSpeedMPH,WindSpeedGustMPH,Humidity,HourlyPrecipIn,Conditions,Clouds,dailyrainin,SoftwareType,DateUTC
2013-02-22 00:00:00,16.5,12.8,30.35,South,173,0.0,5.0,85,0.00,,,0.00,WUHU216DAVISVP2,2013-02-22 05:00:00,
2013-02-22 00:05:00,16.6,12.8,30.35,SE,124,1.0,5.0,85,0.00,,,0.00,WUHU216DAVISVP2,2013-02-22 05:05:00,
2013-02-22 00:10:00,16.6,12.8,30.36,West,260,3.0,5.0,85,0.00,,,0.00,WUHU216DAVISVP2,2013-02-22 05:10:00,
2013-02-22 00:15:00,16.6,12.8,30.36,WNW,288,4.0,6.0,85,0.00,,,0.00,WUHU216DAVISVP2,2013-02-22 05:15:00,
2013-02-22 00:20:00,16.7,12.9,30.36,South,184,1.0,6.0,85,0.00,,,0.00,WUHU216DAVISVP2,2013-02-22 05:20:00,
2013-02-22 00:25:00,16.8,13.0,30.36,SE,146,0.0,6.0,85,0.00,,,0.00,WUHU216DAVISVP2,2013-02-22 05:25:00,
2013-02-22 00:30:00,16.8,13.0,30.38,North,11,0.0,6.0,85,0.00,,,0.00,WUHU216DAVISVP2,2013-02-22 05:30:00,
2013-02-22 00:35:00,17.0,13.3,30.38,NW,321,1.0,6.0,85,0.00,,,0.00,WUHU216DAVISVP2,2013-02-22 05:35:00,
2013-02-22 00:40:00,17.0,13.3,30.38,SW,217,1.0,6.0,85,0.00,,,0.00,WUHU216DAVISVP2,2013-02-22 05:40:00,
2013-02-22 00:45:00,17.1,13.3,30.38,East,91,0.0,6.0,85,0.00,,,0.00,WUHU216DAVISVP2,2013-02-22 05:45:00,
2013-02-22 00:50:00,17.1,13.3,30.38,SSE,148,0.0,4.0,85,0.00,,,0.00,WUHU216DAVISVP2,2013-02-22 05:50:00,
2013-02-22 00:55:00,17.1,13.3,30.38,ENE,58,0.0,3.0,85,0.00,,,0.00,WUHU216DAVISVP2,2013-02-22 05:55:00,
2013-02-22 01:00:00,17.2,13.4,30.38,ESE,122,0.0,3.0,85,0.00,,,0.00,WUHU216DAVISVP2,2013-02-22 06:00:00,
2013-02-22 01:05:00,17.3,13.6,30.38,SW,219,0.0,3.0,85,0.00,,,0.00,WUHU216DAVISVP2,2013-02-22 06:05:00,
2013-02-22 01:10:00,17.3,13.3,30.37,SSW,195,0.0,4.0,84,0.00,,,0.00,WUHU216DAVISVP2,2013-02-22 06:10:00,
2013-02-22 01:15:00,17.3,13.3,30.36,NNE,19,1.0,4.0,84,0.00,,,0.00,WUHU216DAVISVP2,2013-02-22 06:15:00,
2013-02-22 01:20:00,17.4,13.4,30.35,WSW,240,0.0,4.0,84,0.00,,,0.00,WUHU216DAVISVP2,2013-02-22 06:20:00,
2013-02-22 01:25:00,17.4,13.4,30.35,WSW,245,1.0,5.0,84,0.00,,,0.00,WUHU216DAVISVP2,2013-02-22 06:25:00,
2013-02-22 01:30:00,17.4,13.4,30.35,WNW,291,1.0,6.0,84,0.00,,,0.00,WUHU216DAVISVP2,2013-02-22 06:30:00,
2013-02-22 01:35:00,17.4,13.4,30.35,SW,214,2.0,6.0,84,0.00,,,0.00,WUHU216DAVISVP2,2013-02-22 06:35:00,
2013-02-22 01:40:00,17.4,13.4,30.35,South,172,0.0,7.0,84,0.00,,,0.00,WUHU216DAVISVP2,2013-02-22 06:40:00,
2013-02-22 01:45:00,17.5,13.5,30.34,West,269,3.0,7.0,84,0.00,,,0.00,WUHU216DAVISVP2,2013-02-22 06:45:00,
2013-02-22 01:50:00,17.5,13.5,30.34,SSW,205,0.0,7.0,84,0.00,,,0.00,WUHU216DAVISVP2,2013-02-22 06:50:00,
2013-02-22 01:55:00,17.6,13.6,30.35,WNW,297,2.0,7.0,84,0.00,,,0.00,WUHU216DAVISVP2,2013-02-22 06:55:00,
2013-02-22 02:00:00,17.6,13.6,30.34,SSW,207,3.0,7.0,84,0.00,,,0.00,WUHU216DAVISVP2,2013-02-22 07:00:00,
2013-02-22 02:05:00,17.6,13.6,30.33,SW,215,2.0,8.0,84,0.00,,,0.00,WUHU216DAVISVP2,2013-02-22 07:05:00,
2013-02-22 02:10:00,17.6,13.3,30.33,SSW,210,3.0,8.0,83,0.00,,,0.00,WUHU216DAVISVP2,2013-02-22 07:10:00,
2013-02-22 02:15:00,17.7,13.4,30.33,SSW,200,1.0,9.0,83,0.00,,,0.00,WUHU216DAVISVP2,2013-02-22 07:15:00,
2013-02-22 02:20:00,17.8,13.5,30.32,SW,221,1.0,9.0,83,0.00,,,0.00,WUHU216DAVISVP2,2013-02-22 07:20:00,
2013-02-22 02:25:00,17.8,13.5,30.32,NW,309,2.0,9.0,83,0.00,,,0.00,WUHU216DAVISVP2,2013-02-22 07:25:00,
2013-02-22 02:30:00,17.9,13.6,30.31,ESE,105,1.0,9.0,83,0.00,,,0.00,WUHU216DAVISVP2,2013-02-22 07:30:00,
2013-02-22 02:35:00,17.9,13.3,30.31,SSE,162,0.0,6.0,82,0.00,,,0.00,WUHU216DAVISVP2,2013-02-22 07:35:00,
2013-02-22 02:40:00,18.0,13.4,30.30,WSW,257,1.0,6.0,82,0.00,,,0.00,WUHU216DAVISVP2,2013-02-22 07:40:00,
2013-02-22 02:45:00,18.1,13.5,30.30,NNW,336,3.0,6.0,82,0.00,,,0.00,WUHU216DAVISVP2,2013-02-22 07:45:00,
2013-02-22 02:50:00,18.2,13.6,30.29,SW,225,9.0,9.0,82,0.00,,,0.00,WUHU216DAVISVP2,2013-02-22 07:50:00,
2013-02-22 02:55:00,18.2,13.6,30.29,West,266,5.0,9.0,82,0.00,,,0.00,WUHU216DAVISVP2,2013-02-22 07:55:00,
2013-02-22 03:00:00,18.3,13.4,30.29,SSE,155,0.0,11.0,81,0.00,,,0.00,WUHU216DAVISVP2,2013-02-22 08:00:00,
2013-02-22 03:05:00,18.5,13.6,30.29,SSE,160,1.0,11.0,81,0.00,,,0.00,WUHU216DAVISVP2,2013-02-22 08:05:00,
2013-02-22 03:10:00,18.5,13.6,30.28,SW,221,1.0,10.0,81,0.00,,,0.00,WUHU216DAVISVP2,2013-02-22 08:10:00,
2013-02-22 03:15:00,18.6,13.7,30.28,East,92,2.0,7.0,81,0.00,,,0.00,WUHU216DAVISVP2,2013-02-22 08:15:00,
2013-02-22 03:20:00,18.8,13.9,30.29,SW,232,2.0,7.0,81,0.00,,,0.00,WUHU216DAVISVP2,2013-02-22 08:20:00,
2013-02-22 03:25:00,18.8,13.7,30.29,ENE,78,0.0,7.0,80,0.00,,,0.00,WUHU216DAVISVP2,2013-02-22 08:25:00,
2013-02-22 03:30:00,18.9,13.7,30.28,South,187,0.0,7.0,80,0.00,,,0.00,WUHU216DAVISVP2,2013-02-22 08:30:00,
2013-02-22 03:35:00,19.0,13.8,30.29,West,262,3.0,7.0,80,0.00,,,0.00,WUHU216DAVISVP2,2013-02-22 08:35:00,
2013-02-22 03:40:00,19.0,13.8,30.28,SSW,205,2.0,7.0,80,0.00,,,0.00,WUHU216DAVISVP2,2013-02-22 08:40:00,
2013-02-22 03:45:00,19.0,13.6,30.27,NE,44,0.0,7.0,79,0.00,,,0.00,WUHU216DAVISVP2,2013-02-22 08:45:00,
2013-02-22 03:50:00,19.1,13.9,30.27,WSW,239,2.0,8.0,80,0.00,,,0.00,WUHU216DAVISVP2,2013-02-22 08:50:00,
2013-02-22 03:55:00,19.2,13.8,30.26,South,172,0.0,8.0,79,0.00,,,0.00,WUHU216DAVISVP2,2013-02-22 08:55:00,
2013-02-22 04:00:00,19.2,13.8,30.26,SSE,163,1.0,8.0,79,0.00,,,0.00,WUHU216DAVISVP2,2013-02-22 09:00:00,
2013-02-22 04:05:00,19.3,13.9,30.26,WSW,243,5.0,8.0,79,0.00,,,0.00,WUHU216DAVISVP2,2013-02-22 09:05:00,
2013-02-22 04:10:00,19.4,14.0,30.25,WSW,245,6.0,8.0,79,0.00,,,0.00,WUHU216DAVISVP2,2013-02-22 09:10:00,
2013-02-22 04:15:00,19.4,14.0,30.24,WSW,242,2.0,7.0,79,0.00,,,0.00,WUHU216DAVISVP2,2013-02-22 09:15:00,
2013-02-22 04:20:00,19.5,14.1,30.24,WSW,248,6.0,12.0,79,0.00,,,0.00,WUHU216DAVISVP2,2013-02-22 09:20:00,
2013-02-22 04:25:00,19.6,14.1,30.23,WSW,253,4.0,12.0,79,0.00,,,0.00,WUHU216DAVISVP2,2013-02-22 09:25:00,
2013-02-22 04:30:00,19.6,14.2,30.22,SE,140,0.0,11.0,79,0.00,,,0.00,WUHU216DAVISVP2,2013-02-22 09:30:00,
2013-02-22 04:35:00,19.8,14.3,30.22,West,267,3.0,12.0,79,0.00,,,0.00,WUHU216DAVISVP2,2013-02-22 09:35:00,
2013-02-22 04:40:00,19.9,14.2,30.21,West,266,7.0,12.0,78,0.00,,,0.00,WUHU216DAVISVP2,2013-02-22 09:40:00,
2013-02-22 04:45:00,20.0,14.3,30.21,NNE,32,3.0,12.0,78,0.00,,,0.00,WUHU216DAVISVP2,2013-02-22 09:45:00,
2013-02-22 04:50:00,20.2,14.5,30.20,North,5,2.0,12.0,78,0.00,,,0.00,WUHU216DAVISVP2,2013-02-22 09:50:00,
2013-02-22 04:55:00,20.3,14.5,30.19,SW,218,1.0,11.0,78,0.00,,,0.00,WUHU216DAVISVP2,2013-02-22 09:55:00,
2013-02-22 05:00:00,20.5,14.7,30.19,North,352,2.0,11.0,78,0.00,,,0.00,WUHU216DAVISVP2,2013-02-22 10:00:00,
2013-02-22 05:05:00,20.6,14.6,30.19,West,277,3.0,12.0,77,0.00,,,0.00,WUHU216DAVISVP2,2013-02-22 10:05:00,
2013-02-22 05:11:00,20.9,14.8,30.19,West,265,5.0,13.0,77,0.00,,,0.00,WUHU216DAVISVP2,2013-02-22 10:11:00,
2013-02-22 05:16:00,21.0,14.9,30.18,WNW,297,7.0,13.0,77,0.00,,,0.00,WUHU216DAVISVP2,2013-02-22 10:16:00,
2013-02-22 05:21:00,21.1,15.0,30.18,WSW,245,4.0,13.0,77,0.00,,,0.00,WUHU216DAVISVP2,2013-02-22 10:21:00,
2013-02-22 05:26:00,21.2,14.8,30.18,NW,319,0.0,13.0,76,0.00,,,0.00,WUHU216DAVISVP2,2013-02-22 10:26:00,
2013-02-22 05:31:00,21.2,15.1,30.18,WNW,292,8.0,11.0,77,0.00,,,0.00,WUHU216DAVISVP2,2013-02-22 10:31:00,
2013-02-22 05:36:00,21.3,15.2,30.18,WSW,243,1.0,10.0,77,0.00,,,0.00,WUHU216DAVISVP2,2013-02-22 10:36:00,
2013-02-22 05:41:00,21.3,15.2,30.18,SE,129,0.0,10.0,77,0.00,,,0.00,WUHU216DAVISVP2,2013-02-22 10:41:00,
2013-02-22 05:46:00,21.5,15.1,30.18,WNW,295,2.0,10.0,76,0.00,,,0.00,WUHU216DAVISVP2,2013-02-22 10:46:00,
2013-02-22 05:51:00,21.6,15.5,30.18,South,191,3.0,11.0,77,0.00,,,0.00,WUHU216DAVISVP2,2013-02-22 10:51:00,
2013-02-22 05:56:00,21.7,15.3,30.17,NE,44,1.0,11.0,76,0.00,,,0.00,WUHU216DAVISVP2,2013-02-22 10:56:00,
2013-02-22 06:01:00,21.9,15.5,30.18,WSW,248,8.0,11.0,76,0.00,,,0.00,WUHU216DAVISVP2,2013-02-22 11:01:00,
2013-02-22 06:06:00,21.9,15.5,30.17,SW,225,4.0,11.0,76,0.00,,,0.00,WUHU216DAVISVP2,2013-02-22 11:06:00,
2013-02-22 06:11:00,21.9,15.8,30.16,WNW,302,9.0,10.0,77,0.00,,,0.00,WUHU216DAVISVP2,2013-02-22 11:11:00,
2013-02-22 06:16:00,22.0,15.9,30.16,NNW,330,0.0,10.0,77,0.00,,,0.00,WUHU216DAVISVP2,2013-02-22 11:16:00,
2013-02-22 06:21:00,22.1,16.0,30.15,NW,319,4.0,9.0,77,0.00,,,0.00,WUHU216DAVISVP2,2013-02-22 11:21:00,
2013-02-22 06:26:00,22.1,15.7,30.15,NNW,335,2.0,13.0,76,0.00,,,0.00,WUHU216DAVISVP2,2013-02-22 11:26:00,
2013-02-22 06:31:00,22.3,15.9,30.15,WSW,240,2.0,13.0,76,0.00,,,0.00,WUHU216DAVISVP2,2013-02-22 11:31:00,
2013-02-22 06:36:00,22.4,16.0,30.14,WNW,285,7.0,13.0,76,0.00,,,0.00,WUHU216DAVISVP2,2013-02-22 11:36:00,
2013-02-22 06:41:00,22.5,16.1,30.14,NW,323,4.0,13.0,76,0.00,,,0.00,WUHU216DAVISVP2,2013-02-22 11:41:00,
2013-02-22 06:46:00,22.7,16.3,30.14,West,271,5.0,12.0,76,0.00,,,0.00,WUHU216DAVISVP2,2013-02-22 11:46:00,
2013-02-22 06:51:00,22.8,16.4,30.13,WNW,291,6.0,11.0,76,0.00,,,0.00,WUHU216DAVISVP2,2013-02-22 11:51:00,
2013-02-22 06:56:00,23.0,16.3,30.14,West,269,2.0,14.0,75,0.00,,,0.00,WUHU216DAVISVP2,2013-02-22 11:56:00,
2013-02-22 07:01:00,23.1,16.4,30.15,NE,43,2.0,14.0,75,0.00,,,0.00,WUHU216DAVISVP2,2013-02-22 12:01:00,
2013-02-22 07:06:00,23.3,16.6,30.15,North,4,4.0,14.0,75,0.00,,,0.00,WUHU216DAVISVP2,2013-02-22 12:06:00,
2013-02-22 07:11:00,23.4,16.6,30.15,WSW,255,1.0,14.0,75,0.00,,,0.00,WUHU216DAVISVP2,2013-02-22 12:11:00,
2013-02-22 07:16:00,23.5,17.1,30.14,SE,146,2.0,10.0,76,0.00,,,0.00,WUHU216DAVISVP2,2013-02-22 12:16:00,
2013-02-22 07:21:00,23.4,17.6,30.14,SW,214,3.0,11.0,78,0.00,,,0.00,WUHU216DAVISVP2,2013-02-22 12:21:00,
2013-02-22 07:26:00,23.5,17.7,30.13,SE,141,2.0,14.0,78,0.00,,,0.00,WUHU216DAVISVP2,2013-02-22 12:26:00,
2013-02-22 07:31:00,23.6,18.3,30.12,NW,322,4.0,14.0,80,0.00,,,0.00,WUHU216DAVISVP2,2013-02-22 12:31:00,
2013-02-22 07:36:00,23.7,18.7,30.11,WNW,290,2.0,13.0,81,0.00,,,0.00,WUHU216DAVISVP2,2013-02-22 12:36:00,
2013-02-22 07:41:00,23.8,19.1,30.11,SSE,155,1.0,14.0,82,0.00,,,0.00,WUHU216DAVISVP2,2013-02-22 12:41:00,
2013-02-22 07:46:00,23.8,19.1,30.11,ENE,72,5.0,14.0,82,0.00,,,0.00,WUHU216DAVISVP2,2013-02-22 12:46:00,
2013-02-22 07:51:00,23.9,19.5,30.11,North,11,2.0,14.0,83,0.00,,,0.00,WUHU216DAVISVP2,2013-02-22 12:51:00,
2013-02-22 07:56:00,24.0,19.8,30.11,South,170,2.0,16.0,84,0.00,,,0.00,WUHU216DAVISVP2,2013-02-22 12:56:00,
2013-02-22 08:01:00,24.1,20.2,30.10,North,4,4.0,16.0,85,0.00,,,0.00,WUHU216DAVISVP2,2013-02-22 13:01:00,
2013-02-22 08:06:00,24.2,20.3,30.10,WSW,248,2.0,16.0,85,0.00,,,0.00,WUHU216DAVISVP2,2013-02-22 13:06:00,
2013-02-22 08:11:00,24.4,20.5,30.09,WSW,245,3.0,14.0,85,0.00,,,0.00,WUHU216DAVISVP2,2013-02-22 13:11:00,
2013-02-22 08:16:00,24.5,20.6,30.09,NW,304,4.0,14.0,85,0.00,,,0.00,WUHU216DAVISVP2,2013-02-22 13:16:00,
2013-02-22 08:21:00,24.7,20.5,30.08,West,260,4.0,14.0,84,0.00,,,0.00,WUHU216DAVISVP2,2013-02-22 13:21:00,
2013-02-22 08:26:00,24.8,20.6,30.08,NW,307,5.0,14.0,84,0.00,,,0.00,WUHU216DAVISVP2,2013-02-22 13:26:00,
2013-02-22 08:31:00,25.0,20.5,30.07,NNE,12,3.0,12.0,83,0.00,,,0.00,WUHU216DAVISVP2,2013-02-22 13:31:00,
2013-02-22 08:36:00,25.1,20.6,30.07,WNW,286,3.0,14.0,83,0.00,,,0.00,WUHU216DAVISVP2,2013-02-22 13:36:00,
2013-02-22 08:41:00,25.2,20.5,30.07,NNE,23,4.0,14.0,82,0.00,,,0.00,WUHU216DAVISVP2,2013-02-22 13:41:00,
2013-02-22 08:46:00,25.4,20.7,30.07,WSW,245,5.0,18.0,82,0.00,,,0.00,WUHU216DAVISVP2,2013-02-22 13:46:00,
2013-02-22 08:51:00,25.5,20.8,30.06,WNW,286,7.0,18.0,82,0.00,,,0.00,WUHU216DAVISVP2,2013-02-22 13:51:00,
2013-02-22 08:56:00,25.7,20.7,30.06,SW,215,4.0,17.0,81,0.00,,,0.00,WUHU216DAVISVP2,2013-02-22 13:56:00,
2013-02-22 09:01:00,25.8,20.8,30.06,ENE,65,4.0,17.0,81,0.00,,,0.00,WUHU216DAVISVP2,2013-02-22 14:01:00,
2013-02-22 09:06:00,25.8,20.8,30.06,WNW,287,7.0,12.0,81,0.00,,,0.00,WUHU216DAVISVP2,2013-02-22 14:06:00,
2013-02-22 09:11:00,25.9,20.6,30.06,NE,41,3.0,13.0,80,0.00,,,0.00,WUHU216DAVISVP2,2013-02-22 14:11:00,
2013-02-22 09:16:00,26.1,21.1,30.06,NNW,331,2.0,13.0,81,0.00,,,0.00,WUHU216DAVISVP2,2013-02-22 14:16:00,
2013-02-22 09:21:00,26.2,21.2,30.06,South,181,1.0,13.0,81,0.00,,,0.00,WUHU216DAVISVP2,2013-02-22 14:21:00,
2013-02-22 09:26:00,26.3,21.3,30.05,South,188,0.0,13.0,81,0.00,,,0.00,WUHU216DAVISVP2,2013-02-22 14:26:00,
2013-02-22 09:31:00,26.5,21.7,30.05,WNW,287,5.0,17.0,82,0.00,,,0.00,WUHU216DAVISVP2,2013-02-22 14:31:00,
2013-02-22 09:36:00,26.5,21.7,30.06,West,266,7.0,17.0,82,0.00,,,0.00,WUHU216DAVISVP2,2013-02-22 14:36:00,
2013-02-22 09:41:00,26.6,21.8,30.06,South,191,2.0,17.0,82,0.00,,,0.00,WUHU216DAVISVP2,2013-02-22 14:41:00,
2013-02-22 09:46:00,26.6,21.8,30.05,SW,226,4.0,17.0,82,0.00,,,0.00,WUHU216DAVISVP2,2013-02-22 14:46:00,
2013-02-22 09:51:00,26.6,22.1,30.05,NE,35,5.0,13.0,83,0.00,,,0.00,WUHU216DAVISVP2,2013-02-22 14:51:00,
2013-02-22 09:56:00,26.7,22.2,30.06,ESE,115,2.0,12.0,83,0.00,,,0.00,WUHU216DAVISVP2,2013-02-22 14:56:00,
2013-02-22 10:01:00,26.9,22.7,30.05,NNW,333,4.0,13.0,84,0.00,,,0.00,WUHU216DAVISVP2,2013-02-22 15:01:00,
2013-02-22 10:06:00,27.0,22.8,30.06,NNW,339,7.0,15.0,84,0.00,,,0.00,WUHU216DAVISVP2,2013-02-22 15:06:00,
2013-02-22 10:11:00,27.1,22.9,30.05,ESE,120,2.0,15.0,84,0.00,,,0.00,WUHU216DAVISVP2,2013-02-22 15:11:00,
2013-02-22 10:16:00,27.1,22.9,30.05,SSE,167,3.0,17.0,84,0.00,,,0.00,WUHU216DAVISVP2,2013-02-22 15:16:00,
2013-02-22 10:21:00,27.2,23.3,30.06,West,260,1.0,17.0,85,0.00,,,0.00,WUHU216DAVISVP2,2013-02-22 15:21:00,
2013-02-22 10:26:00,27.3,23.6,30.06,NNE,30,2.0,22.0,86,0.00,,,0.00,WUHU216DAVISVP2,2013-02-22 15:26:00,
2013-02-22 10:31:00,27.4,23.8,30.06,WNW,283,10.0,22.0,86,0.00,,,0.00,WUHU216DAVISVP2,2013-02-22 15:31:00,
2013-02-22 10:36:00,27.4,24.0,30.05,NNW,344,2.0,21.0,87,0.00,,,0.00,WUHU216DAVISVP2,2013-02-22 15:36:00,
2013-02-22 10:41:00,27.5,24.1,30.06,WSW,245,3.0,11.0,87,0.00,,,0.00,WUHU216DAVISVP2,2013-02-22 15:41:00,
2013-02-22 10:46:00,27.6,24.5,30.05,West,271,2.0,13.0,88,0.00,,,0.00,WUHU216DAVISVP2,2013-02-22 15:46:00,
2013-02-22 10:51:00,27.6,24.5,30.06,WNW,290,3.0,13.0,88,0.00,,,0.00,WUHU216DAVISVP2,2013-02-22 15:51:00,
2013-02-22 10:56:00,27.8,24.9,30.05,SW,226,10.0,16.0,89,0.00,,,0.00,WUHU216DAVISVP2,2013-02-22 15:56:00,
2013-02-22 11:01:00,27.8,24.9,30.05,NE,53,3.0,16.0,89,0.00,,,0.00,WUHU216DAVISVP2,2013-02-22 16:01:00,
2013-02-22 11:06:00,27.9,25.0,30.06,NW,311,3.0,16.0,89,0.00,,,0.00,WUHU216DAVISVP2,2013-02-22 16:06:00,
2013-02-22 11:11:00,27.9,25.0,30.05,North,4,2.0,16.0,89,0.00,,,0.00,WUHU216DAVISVP2,2013-02-22 16:11:00,
2013-02-22 11:16:00,27.9,25.3,30.06,NNW,335,7.0,10.0,90,0.00,,,0.00,WUHU216DAVISVP2,2013-02-22 16:16:00,
2013-02-22 11:21:00,27.9,25.3,30.05,ESE,117,1.0,11.0,90,0.00,,,0.00,WUHU216DAVISVP2,2013-02-22 16:21:00,
2013-02-22 11:26:00,28.0,25.4,30.05,WNW,302,2.0,13.0,90,0.00,,,0.00,WUHU216DAVISVP2,2013-02-22 16:26:00,
2013-02-22 11:31:00,28.1,25.5,30.06,South,169,1.0,13.0,90,0.00,,,0.00,WUHU216DAVISVP2,2013-02-22 16:31:00,
2013-02-22 11:36:00,28.2,25.6,30.06,SSW,196,2.0,13.0,90,0.00,,,0.00,WUHU216DAVISVP2,2013-02-22 16:36:00,
2013-02-22 11:41:00,28.3,25.7,30.06,SW,236,4.0,13.0,90,0.00,,,0.00,WUHU216DAVISVP2,2013-02-22 16:41:00,
2013-02-22 11:46:00,28.3,25.7,30.06,ENE,70,3.0,10.0,90,0.00,,,0.00,WUHU216DAVISVP2,2013-02-22 16:46:00,
2013-02-22 11:51:00,28.5,26.2,30.06,NNE,26,3.0,10.0,91,0.00,,,0.00,WUHU216DAVISVP2,2013-02-22 16:51:00,
2013-02-22 11:56:00,28.5,26.2,30.06,NW,316,3.0,15.0,91,0.00,,,0.00,WUHU216DAVISVP2,2013-02-22 16:56:00,
2013-02-22 12:01:00,28.7,26.4,30.05,North,350,2.0,15.0,91,0.00,,,0.00,WUHU216DAVISVP2,2013-02-22 17:01:00,
2013-02-22 12:06:00,28.7,26.4,30.05,WNW,282,4.0,15.0,91,0.00,,,0.00,WUHU216DAVISVP2,2013-02-22 17:06:00,
2013-02-22 12:11:00,28.9,26.8,30.05,NNW,346,5.0,15.0,92,0.00,,,0.00,WUHU216DAVISVP2,2013-02-22 17:11:00,
2013-02-22 12:16:00,29.2,27.1,30.05,WNW,300,2.0,15.0,92,0.00,,,0.00,WUHU216DAVISVP2,2013-02-22 17:16:00,
2013-02-22 12:21:00,29.3,27.2,30.05,North,354,1.0,15.0,92,0.00,,,0.00,WUHU216DAVISVP2,2013-02-22 17:21:00,
2013-02-22 12:26:00,29.5,27.4,30.05,North,6,6.0,12.0,92,0.00,,,0.00,WUHU216DAVISVP2,2013-02-22 17:26:00,
2013-02-22 12:31:00,29.8,27.7,30.05,SSW,211,3.0,12.0,92,0.00,,,0.00,WUHU216DAVISVP2,2013-02-22 17:31:00,
2013-02-22 12:36:00,30.0,27.9,30.04,WSW,249,4.0,12.0,92,0.00,,,0.00,WUHU216DAVISVP2,2013-02-22 17:36:00,
2013-02-22 12:41:00,30.1,28.0,30.04,WSW,238,3.0,13.0,92,0.00,,,0.00,WUHU216DAVISVP2,2013-02-22 17:41:00,
2013-02-22 12:46:00,30.2,28.1,30.03,NW,321,2.0,13.0,92,0.00,,,0.00,WUHU216DAVISVP2,2013-02-22 17:46:00,
2013-02-22 12:51:00,30.4,28.6,30.04,SE,138,0.0,13.0,93,0.00,,,0.00,WUHU216DAVISVP2,2013-02-22 17:51:00,
2013-02-22 12:56:00,30.4,28.3,30.03,West,281,4.0,12.0,92,0.00,,,0.00,WUHU216DAVISVP2,2013-02-22 17:56:00,
2013-02-22 13:01:00,30.5,28.7,30.03,WNW,302,2.0,12.0,93,0.00,,,0.00,WUHU216DAVISVP2,2013-02-22 18:01:00,
2013-02-22 13:06:00,30.6,28.8,30.03,NNW,333,10.0,12.0,93,0.00,,,0.00,WUHU216DAVISVP2,2013-02-22 18:06:00,
2013-02-22 13:11:00,30.7,28.9,30.03,WNW,290,3.0,12.0,93,0.00,,,0.00,WUHU216DAVISVP2,2013-02-22 18:11:00,
2013-02-22 13:16:00,30.9,29.1,30.02,West,269,1.0,12.0,93,0.00,,,0.00,WUHU216DAVISVP2,2013-02-22 18:16:00,
2013-02-22 13:21:00,31.1,29.3,30.02,SW,224,3.0,11.0,93,0.00,,,0.00,WUHU216DAVISVP2,2013-02-22 18:21:00,
2013-02-22 13:26:00,31.3,29.5,30.02,NW,313,6.0,12.0,93,0.00,,,0.00,WUHU216DAVISVP2,2013-02-22 18:26:00,
2013-02-22 13:31:00,31.4,29.8,30.02,ENE,74,4.0,13.0,94,0.00,,,0.00,WUHU216DAVISVP2,2013-02-22 18:31:00,
2013-02-22 13:36:00,31.6,30.0,30.01,WSW,251,2.0,13.0,94,0.00,,,0.00,WUHU216DAVISVP2,2013-02-22 18:36:00,
2013-02-22 13:41:00,31.7,30.1,30.01,WNW,298,3.0,13.0,94,0.00,,,0.00,WUHU216DAVISVP2,2013-02-22 18:41:00,
2013-02-22 13:46:00,31.8,30.2,30.01,North,3,12.0,14.0,94,0.00,,,0.00,WUHU216DAVISVP2,2013-02-22 18:46:00,
2013-02-22 13:51:00,32.0,30.5,30.01,NW,305,6.0,14.0,94,0.00,,,0.00,WUHU216DAVISVP2,2013-02-22 18:51:00,
2013-02-22 13:56:00,32.2,30.6,30.00,NNE,26,2.0,14.0,94,0.00,,,0.00,WUHU216DAVISVP2,2013-02-22 18:56:00,
2013-02-22 14:01:00,32.4,30.8,30.00,ENE,70,4.0,14.0,94,0.00,,,0.00,WUHU216DAVISVP2,2013-02-22 19:01:00,
2013-02-22 14:06:00,32.6,31.1,30.01,WNW,297,1.0,14.0,94,0.00,,,0.00,WUHU216DAVISVP2,2013-02-22 19:06:00,
2013-02-22 14:11:00,32.7,31.1,30.01,WSW,257,7.0,12.0,94,0.00,,,0.00,WUHU216DAVISVP2,2013-02-22 19:11:00,
2013-02-22 14:16:00,32.9,31.3,30.01,NW,314,3.0,12.0,94,0.00,,,0.00,WUHU216DAVISVP2,2013-02-22 19:16:00,
2013-02-22 14:21:00,33.0,31.4,30.00,SSE,158,0.0,11.0,94,0.00,,,0.00,WUHU216DAVISVP2,2013-02-22 19:21:00,
2013-02-22 14:26:00,33.1,31.5,30.01,NE,38,1.0,11.0,94,0.00,,,0.00,WUHU216DAVISVP2,2013-02-22 19:26:00,
2013-02-22 14:31:00,33.1,31.5,30.01,WNW,287,2.0,11.0,94,0.00,,,0.00,WUHU216DAVISVP2,2013-02-22 19:31:00,
2013-02-22 14:36:00,33.2,31.6,30.01,NE,36,1.0,14.0,94,0.00,,,0.00,WUHU216DAVISVP2,2013-02-22 19:36:00,
2013-02-22 14:41:00,33.3,31.7,30.01,WNW,295,7.0,14.0,94,0.00,,,0.00,WUHU216DAVISVP2,2013-02-22 19:41:00,
2013-02-22 14:46:00,33.3,31.8,30.01,North,349,5.0,13.0,94,0.00,,,0.00,WUHU216DAVISVP2,2013-02-22 19:46:00,
2013-02-22 14:51:00,33.3,31.7,30.01,West,278,1.0,13.0,94,0.00,,,0.00,WUHU216DAVISVP2,2013-02-22 19:51:00,
2013-02-22 14:56:00,33.4,31.8,30.01,NE,42,2.0,9.0,94,0.00,,,0.00,WUHU216DAVISVP2,2013-02-22 19:56:00,
2013-02-22 15:01:00,33.4,31.8,30.01,NNW,336,0.0,9.0,94,0.00,,,0.00,WUHU216DAVISVP2,2013-02-22 20:01:00,
2013-02-22 15:06:00,33.5,31.9,30.01,NE,39,2.0,8.0,94,0.00,,,0.00,WUHU216DAVISVP2,2013-02-22 20:06:00,
2013-02-22 15:14:00,33.7,32.1,30.00,NNE,25,6.0,9.0,94,0.00,,,0.00,WUHU216DAVISVP2,2013-02-22 20:14:00,
2013-02-22 15:22:00,33.9,32.4,30.01,South,169,0.0,8.0,94,0.00,,,0.00,WUHU216DAVISVP2,2013-02-22 20:22:00,
2013-02-22 15:27:00,34.1,32.5,30.01,NNW,342,2.0,8.0,94,0.00,,,0.00,WUHU216DAVISVP2,2013-02-22 20:27:00,
2013-02-22 15:32:00,34.3,32.7,30.01,ENE,58,1.0,9.0,94,0.00,,,0.00,WUHU216DAVISVP2,2013-02-22 20:32:00,
2013-02-22 15:37:00,34.5,32.9,30.01,East,97,0.0,10.0,94,0.00,,,0.00,WUHU216DAVISVP2,2013-02-22 20:37:00,
2013-02-22 15:42:00,34.6,33.0,30.01,NNW,345,3.0,10.0,94,0.00,,,0.00,WUHU216DAVISVP2,2013-02-22 20:42:00,
2013-02-22 15:47:00,34.7,33.1,30.01,NNW,335,2.0,10.0,94,0.00,,,0.00,WUHU216DAVISVP2,2013-02-22 20:47:00,
2013-02-22 15:52:00,34.8,33.2,30.01,East,89,2.0,9.0,94,0.00,,,0.00,WUHU216DAVISVP2,2013-02-22 20:52:00,
2013-02-22 15:57:00,34.9,33.0,30.01,NNE,29,2.0,9.0,93,0.00,,,0.00,WUHU216DAVISVP2,2013-02-22 20:57:00,
2013-02-22 16:02:00,35.1,33.2,30.02,ESE,109,0.0,8.0,93,0.00,,,0.00,WUHU216DAVISVP2,2013-02-22 21:02:00,
2013-02-22 16:07:00,35.3,33.7,30.02,ENE,70,2.0,9.0,94,0.00,,,0.00,WUHU216DAVISVP2,2013-02-22 21:07:00,
2013-02-22 16:12:00,35.5,33.9,30.02,NNW,339,3.0,9.0,94,0.00,,,0.00,WUHU216DAVISVP2,2013-02-22 21:12:00,
2013-02-22 16:17:00,35.7,34.1,30.02,NW,323,5.0,13.0,94,0.00,,,0.00,WUHU216DAVISVP2,2013-02-22 21:17:00,
2013-02-22 16:22:00,35.8,34.2,30.02,NNW,339,3.0,13.0,94,0.01,,,0.01,WUHU216DAVISVP2,2013-02-22 21:22:00,
2013-02-22 16:27:00,35.9,34.0,30.02,NW,315,4.0,13.0,93,0.01,,,0.01,WUHU216DAVISVP2,2013-02-22 21:27:00,
2013-02-22 16:32:00,36.0,34.1,30.02,NW,306,2.0,12.0,93,0.01,,,0.01,WUHU216DAVISVP2,2013-02-22 21:32:00,
2013-02-22 16:37:00,36.0,34.2,30.02,North,355,4.0,11.0,93,0.01,,,0.01,WUHU216DAVISVP2,2013-02-22 21:37:00,
2013-02-22 16:42:00,36.0,34.1,30.02,NNE,25,4.0,11.0,93,0.01,,,0.01,WUHU216DAVISVP2,2013-02-22 21:42:00,
2013-02-22 16:47:00,36.0,34.1,30.02,North,355,2.0,11.0,93,0.01,,,0.01,WUHU216DAVISVP2,2013-02-22 21:47:00,
2013-02-22 16:52:00,36.1,34.2,30.02,NNE,12,3.0,11.0,93,0.01,,,0.01,WUHU216DAVISVP2,2013-02-22 21:52:00,
2013-02-22 16:57:00,36.1,34.2,30.02,East,86,2.0,11.0,93,0.01,,,0.01,WUHU216DAVISVP2,2013-02-22 21:57:00,
2013-02-22 17:02:00,36.2,34.3,30.02,NW,311,3.0,10.0,93,0.01,,,0.01,WUHU216DAVISVP2,2013-02-22 22:02:00,
2013-02-22 17:07:00,36.3,34.4,30.02,NE,51,0.0,10.0,93,0.01,,,0.01,WUHU216DAVISVP2,2013-02-22 22:07:00,
2013-02-22 17:12:00,36.4,34.5,30.03,NNW,347,4.0,9.0,93,0.01,,,0.01,WUHU216DAVISVP2,2013-02-22 22:12:00,
2013-02-22 17:17:00,36.5,34.6,30.03,NE,53,2.0,9.0,93,0.01,,,0.01,WUHU216DAVISVP2,2013-02-22 22:17:00,
2013-02-22 17:22:00,36.5,34.6,30.03,NNE,32,1.0,8.0,93,0.00,,,0.01,WUHU216DAVISVP2,2013-02-22 22:22:00,
2013-02-22 17:27:00,36.6,34.7,30.03,North,357,3.0,8.0,93,0.00,,,0.01,WUHU216DAVISVP2,2013-02-22 22:27:00,
2013-02-22 17:32:00,36.6,34.7,30.03,NNE,30,1.0,8.0,93,0.00,,,0.01,WUHU216DAVISVP2,2013-02-22 22:32:00,
2013-02-22 17:37:00,36.7,34.9,30.03,NNE,22,2.0,7.0,93,0.00,,,0.01,WUHU216DAVISVP2,2013-02-22 22:37:00,
2013-02-22 17:42:00,36.7,34.9,30.02,NW,326,5.0,9.0,93,0.00,,,0.01,WUHU216DAVISVP2,2013-02-22 22:42:00,
2013-02-22 17:47:00,36.7,34.8,30.02,NNE,25,4.0,9.0,93,0.00,,,0.01,WUHU216DAVISVP2,2013-02-22 22:47:00,
2013-02-22 17:52:00,36.7,34.8,30.03,NNW,329,4.0,9.0,93,0.00,,,0.01,WUHU216DAVISVP2,2013-02-22 22:52:00,
2013-02-22 17:57:00,36.7,34.9,30.03,NE,43,0.0,9.0,93,0.00,,,0.01,WUHU216DAVISVP2,2013-02-22 22:57:00,
2013-02-22 18:02:00,36.7,34.8,30.03,NNW,333,4.0,8.0,93,0.00,,,0.01,WUHU216DAVISVP2,2013-02-22 23:02:00,
2013-02-22 18:07:00,36.7,34.9,30.03,NE,45,3.0,6.0,93,0.00,,,0.01,WUHU216DAVISVP2,2013-02-22 23:07:00,
2013-02-22 18:12:00,36.8,35.0,30.03,North,349,1.0,10.0,93,0.00,,,0.01,WUHU216DAVISVP2,2013-02-22 23:12:00,
2013-02-22 18:17:00,36.8,35.0,30.04,NE,40,1.0,10.0,93,0.00,,,0.01,WUHU216DAVISVP2,2013-02-22 23:17:00,
2013-02-22 18:22:00,36.8,34.6,30.04,West,274,2.0,10.0,92,0.00,,,0.01,WUHU216DAVISVP2,2013-02-22 23:22:00,
2013-02-22 18:27:00,36.9,34.7,30.04,NNE,14,4.0,10.0,92,0.00,,,0.01,WUHU216DAVISVP2,2013-02-22 23:27:00,
2013-02-22 18:32:00,36.9,34.7,30.04,NW,319,2.0,9.0,92,0.00,,,0.01,WUHU216DAVISVP2,2013-02-22 23:32:00,
2013-02-22 18:37:00,36.9,34.7,30.04,NNE,30,2.0,7.0,92,0.00,,,0.01,WUHU216DAVISVP2,2013-02-22 23:37:00,
2013-02-22 18:42:00,36.9,34.8,30.04,NE,51,5.0,7.0,92,0.00,,,0.01,WUHU216DAVISVP2,2013-02-22 23:42:00,
2013-02-22 18:47:00,36.9,34.7,30.04,East,85,0.0,6.0,92,0.00,,,0.01,WUHU216DAVISVP2,2013-02-22 23:47:00,
2013-02-22 18:52:00,36.9,34.5,30.04,NNE,13,3.0,7.0,91,0.00,,,0.01,WUHU216DAVISVP2,2013-02-22 23:52:00,
2013-02-22 18:57:00,36.9,34.5,30.05,North,4,5.0,7.0,91,0.00,,,0.01,WUHU216DAVISVP2,2013-02-22 23:57:00,
2013-02-22 19:02:00,37.0,34.3,30.05,NE,49,2.0,7.0,90,0.00,,,0.01,WUHU216DAVISVP2,2013-02-23 00:02:00,
2013-02-22 19:07:00,37.0,34.3,30.05,NE,46,1.0,7.0,90,0.00,,,0.01,WUHU216DAVISVP2,2013-02-23 00:07:00,
2013-02-22 19:12:00,37.2,34.2,30.05,ENE,77,2.0,7.0,89,0.00,,,0.01,WUHU216DAVISVP2,2013-02-23 00:12:00,
2013-02-22 19:17:00,37.2,34.0,30.05,NE,45,3.0,6.0,88,0.00,,,0.01,WUHU216DAVISVP2,2013-02-23 00:17:00,
2013-02-22 19:22:00,37.1,33.8,30.05,East,98,1.0,7.0,88,0.00,,,0.01,WUHU216DAVISVP2,2013-02-23 00:22:00,
2013-02-22 19:27:00,36.9,33.6,30.05,ENE,76,1.0,7.0,88,0.00,,,0.01,WUHU216DAVISVP2,2013-02-23 00:27:00,
2013-02-22 19:32:00,36.7,33.4,30.05,WNW,298,1.0,7.0,88,0.00,,,0.01,WUHU216DAVISVP2,2013-02-23 00:32:00,
2013-02-22 19:37:00,36.4,33.1,30.05,East,89,2.0,5.0,88,0.00,,,0.01,WUHU216DAVISVP2,2013-02-23 00:37:00,
2013-02-22 19:42:00,36.4,33.2,30.05,East,98,1.0,7.0,88,0.00,,,0.01,WUHU216DAVISVP2,2013-02-23 00:42:00,
2013-02-22 19:47:00,36.3,33.1,30.05,ENE,76,3.0,7.0,88,0.00,,,0.01,WUHU216DAVISVP2,2013-02-23 00:47:00,
2013-02-22 19:52:00,36.4,32.9,30.05,ESE,111,0.0,6.0,87,0.00,,,0.01,WUHU216DAVISVP2,2013-02-23 00:52:00,
2013-02-22 19:57:00,36.5,33.0,30.05,East,80,0.0,6.0,87,0.00,,,0.01,WUHU216DAVISVP2,2013-02-23 00:57:00,
2013-02-22 20:02:00,36.6,32.8,30.05,East,101,1.0,7.0,86,0.00,,,0.01,WUHU216DAVISVP2,2013-02-23 01:02:00,
2013-02-22 20:07:00,36.7,32.9,30.05,South,187,0.0,7.0,86,0.00,,,0.01,WUHU216DAVISVP2,2013-02-23 01:07:00,
2013-02-22 20:12:00,36.8,32.7,30.04,East,90,1.0,6.0,85,0.00,,,0.01,WUHU216DAVISVP2,2013-02-23 01:12:00,
2013-02-22 20:17:00,36.8,32.7,30.04,WSW,250,4.0,6.0,85,0.00,,,0.01,WUHU216DAVISVP2,2013-02-23 01:17:00,
2013-02-22 20:22:00,36.9,32.5,30.04,East,89,0.0,7.0,84,0.00,,,0.01,WUHU216DAVISVP2,2013-02-23 01:22:00,
2013-02-22 20:27:00,36.7,32.3,30.04,East,83,3.0,7.0,84,0.00,,,0.01,WUHU216DAVISVP2,2013-02-23 01:27:00,
2013-02-22 20:32:00,36.7,32.3,30.04,East,96,3.0,7.0,84,0.00,,,0.01,WUHU216DAVISVP2,2013-02-23 01:32:00,
2013-02-22 20:37:00,36.6,32.2,30.04,East,101,1.0,7.0,84,0.00,,,0.01,WUHU216DAVISVP2,2013-02-23 01:37:00,
2013-02-22 20:42:00,36.5,32.1,30.04,ENE,67,1.0,7.0,84,0.00,,,0.01,WUHU216DAVISVP2,2013-02-23 01:42:00,
2013-02-22 20:47:00,36.3,32.2,30.04,ESE,117,0.0,6.0,85,0.00,,,0.01,WUHU216DAVISVP2,2013-02-23 01:47:00,
2013-02-22 20:53:00,36.0,31.9,30.04,East,86,1.0,6.0,85,0.00,,,0.01,WUHU216DAVISVP2,2013-02-23 01:53:00,
2013-02-22 20:58:00,35.9,32.1,30.04,East,94,0.0,5.0,86,0.00,,,0.01,WUHU216DAVISVP2,2013-02-23 01:58:00,
2013-02-22 21:04:00,35.7,31.9,30.04,East,89,0.0,5.0,86,0.00,,,0.01,WUHU216DAVISVP2,2013-02-23 02:04:00,
2013-02-22 21:09:00,35.6,31.8,30.05,East,99,0.0,4.0,86,0.00,,,0.01,WUHU216DAVISVP2,2013-02-23 02:09:00,
2013-02-22 21:14:00,35.6,32.1,30.04,East,96,0.0,4.0,87,0.00,,,0.01,WUHU216DAVISVP2,2013-02-23 02:14:00,
2013-02-22 21:19:00,35.5,32.0,30.04,East,91,0.0,2.0,87,0.00,,,0.01,WUHU216DAVISVP2,2013-02-23 02:19:00,
2013-02-22 21:24:00,35.5,32.0,30.04,East,99,0.0,2.0,87,0.00,,,0.01,WUHU216DAVISVP2,2013-02-23 02:24:00,
2013-02-22 21:29:00,35.5,32.0,30.04,East,98,0.0,2.0,87,0.00,,,0.01,WUHU216DAVISVP2,2013-02-23 02:29:00,
2013-02-22 21:34:00,35.5,32.0,30.05,ESE,117,0.0,4.0,87,0.00,,,0.01,WUHU216DAVISVP2,2013-02-23 02:34:00,
2013-02-22 21:39:00,35.7,32.2,30.05,WNW,291,0.0,4.0,87,0.00,,,0.01,WUHU216DAVISVP2,2013-02-23 02:39:00,
2013-02-22 21:44:00,35.7,32.2,30.05,ENE,65,0.0,3.0,87,0.00,,,0.01,WUHU216DAVISVP2,2013-02-23 02:44:00,
2013-02-22 21:49:00,35.8,32.3,30.04,ENE,63,2.0,5.0,87,0.00,,,0.01,WUHU216DAVISVP2,2013-02-23 02:49:00,
2013-02-22 21:54:00,36.0,32.2,30.04,NNE,32,2.0,6.0,86,0.00,,,0.01,WUHU216DAVISVP2,2013-02-23 02:54:00,
2013-02-22 21:59:00,36.1,32.3,30.04,SE,124,0.0,6.0,86,0.00,,,0.01,WUHU216DAVISVP2,2013-02-23 02:59:00,
2013-02-22 22:04:00,36.1,32.3,30.04,North,360,2.0,5.0,86,0.00,,,0.01,WUHU216DAVISVP2,2013-02-23 03:04:00,
2013-02-22 22:09:00,36.2,32.1,30.05,North,355,5.0,5.0,85,0.00,,,0.01,WUHU216DAVISVP2,2013-02-23 03:09:00,
2013-02-22 22:14:00,36.2,32.1,30.05,East,86,2.0,6.0,85,0.00,,,0.01,WUHU216DAVISVP2,2013-02-23 03:14:00,
2013-02-22 22:19:00,36.1,32.0,30.05,ENE,76,2.0,6.0,85,0.00,,,0.01,WUHU216DAVISVP2,2013-02-23 03:19:00,
2013-02-22 22:24:00,36.1,32.0,30.05,SE,127,2.0,5.0,85,0.00,,,0.01,WUHU216DAVISVP2,2013-02-23 03:24:00,
2013-02-22 22:29:00,36.1,31.7,30.05,East,91,2.0,7.0,84,0.00,,,0.01,WUHU216DAVISVP2,2013-02-23 03:29:00,
2013-02-22 22:34:00,36.1,31.7,30.05,East,98,0.0,7.0,84,0.00,,,0.01,WUHU216DAVISVP2,2013-02-23 03:34:00,
2013-02-22 22:39:00,36.0,31.6,30.04,ENE,70,2.0,8.0,84,0.00,,,0.01,WUHU216DAVISVP2,2013-02-23 03:39:00,
2013-02-22 22:44:00,35.9,31.5,30.04,East,86,2.0,8.0,84,0.00,,,0.01,WUHU216DAVISVP2,2013-02-23 03:44:00,
2013-02-22 22:49:00,35.8,31.1,30.04,East,96,1.0,8.0,83,0.00,,,0.01,WUHU216DAVISVP2,2013-02-23 03:49:00,
2013-02-22 22:54:00,35.8,31.1,30.04,East,81,2.0,8.0,83,0.00,,,0.01,WUHU216DAVISVP2,2013-02-23 03:54:00,
2013-02-22 22:59:00,35.7,31.0,30.04,ENE,64,2.0,8.0,83,0.00,,,0.01,WUHU216DAVISVP2,2013-02-23 03:59:00,
2013-02-22 23:04:00,35.7,31.0,30.04,East,96,0.0,8.0,83,0.00,,,0.01,WUHU216DAVISVP2,2013-02-23 04:04:00,
2013-02-22 23:09:00,35.7,31.0,30.04,ENE,61,6.0,7.0,83,0.00,,,0.01,WUHU216DAVISVP2,2013-02-23 04:09:00,
2013-02-22 23:14:00,35.6,30.9,30.04,East,97,1.0,7.0,83,0.00,,,0.01,WUHU216DAVISVP2,2013-02-23 04:14:00,
2013-02-22 23:19:00,35.6,30.9,30.04,ESE,104,0.0,7.0,83,0.00,,,0.01,WUHU216DAVISVP2,2013-02-23 04:19:00,
2013-02-22 23:24:00,35.5,30.5,30.04,SSE,150,1.0,6.0,82,0.00,,,0.01,WUHU216DAVISVP2,2013-02-23 04:24:00,
2013-02-22 23:29:00,35.3,30.4,30.03,NNE,23,5.0,10.0,82,0.00,,,0.01,WUHU216DAVISVP2,2013-02-23 04:29:00,
2013-02-22 23:34:00,35.2,30.3,30.03,ENE,65,1.0,10.0,82,0.00,,,0.01,WUHU216DAVISVP2,2013-02-23 04:34:00,
2013-02-22 23:39:00,35.0,30.4,30.03,East,85,0.0,10.0,83,0.00,,,0.01,WUHU216DAVISVP2,2013-02-23 04:39:00,
2013-02-22 23:44:00,34.9,30.3,30.03,East,99,0.0,10.0,83,0.00,,,0.01,WUHU216DAVISVP2,2013-02-23 04:44:00,
2013-02-22 23:49:00,34.9,30.3,30.03,ENE,67,2.0,5.0,83,0.00,,,0.01,WUHU216DAVISVP2,2013-02-23 04:49:00,
2013-02-22 23:54:00,35.0,30.3,30.03,East,97,1.0,5.0,83,0.00,,,0.01,WUHU216DAVISVP2,2013-02-23 04:54:00,
2013-02-22 23:59:00,35.0,30.3,30.03,ENE,63,1.0,8.0,83,0.00,,,0.01,WUHU216DAVISVP2,2013-02-23 04:59:00,